Waarnemingen

Advertentie
Mijn weer
Chievres, België (6432): temperatuur & dauwpunt: 07.12.2019 12:00:00 - 13.12.2019 12:00:00 (CET)Chievres, België (6432): windsnelheid & windstoten: 07.12.2019 12:00:00 - 13.12.2019 12:00:00 (CET)Chievres, België (6432): windrichting: 07.12.2019 12:00:00 - 13.12.2019 12:00:00 (CET)Chievres, België (6432): luchtdruk: 07.12.2019 12:00:00 - 13.12.2019 12:00:00 (CET)Chievres, België (6432): zicht: 07.12.2019 12:00:00 - 13.12.2019 12:00:00 (CET)
Datum & Tijd tt [°C] td [°C] ff [km/u] ff [kn] fx [km/u] fx [kn] dd ppp [hPa] vv [km]
13.12.2019 12:00:00 5,4 4,2 36 19 54 29 W 979,3 10
13.12.2019 11:00:00 5,1 3,7 32 18 54 29 W 977,6 17
13.12.2019 10:00:00 5,7 4,1 32 18 - - W 975,5 18
13.12.2019 09:00:00 6,0 4,8 25 14 40 21 W 973,8 20
13.12.2019 08:00:00 - - - - - - - - -
13.12.2019 07:00:00 - - - - - - - - -
13.12.2019 06:00:00 - - - - - - - - -
13.12.2019 05:00:00 - - - - - - - - -
13.12.2019 04:00:00 - - - - - - - - -
13.12.2019 03:00:00 - - - - - - - - -
13.12.2019 02:00:00 - - - - - - - - -
13.12.2019 01:00:00 - - - - - - - - -
13.12.2019 00:00:00 - - - - - - - - -
12.12.2019 23:00:00 - - - - - - - - -
12.12.2019 22:00:00 - - - - - - - - -
12.12.2019 21:00:00 - - - - - - - - -
12.12.2019 20:00:00 - - - - - - - - -
12.12.2019 19:00:00 - - - - - - - - -
12.12.2019 18:00:00 - - - - 0 0 - - -
12.12.2019 17:00:00 - - - - 0 0 - - -
12.12.2019 16:00:00 4,6 2,0 32 18 - - Z 996,5 -
12.12.2019 15:00:00 4,6 2,0 29 16 43 23 Z 998,1 17
12.12.2019 14:00:00 4,4 1,9 32 18 43 23 Z 998,7 20
12.12.2019 13:00:00 4,2 2,1 29 16 - - Z 1000,6 16
12.12.2019 12:00:00 4,5 2,3 22 12 32 18 Z 1002,7 18
12.12.2019 11:00:00 3,7 2,2 22 12 29 16 Z 1005,3 20
12.12.2019 10:00:00 2,7 1,6 18 10 - - Z 1007,0 16
12.12.2019 09:00:00 1,8 1,0 18 10 25 14 ZZW 1004,3 18
12.12.2019 08:00:00 2,0 1,3 18 10 25 14 ZZW 1004,6 20
12.12.2019 07:00:00 2,2 1,6 14 8 - - ZZW 1005,6 19
12.12.2019 06:00:00 2,1 1,5 11 6 18 10 ZZW 1004,2 20
12.12.2019 05:00:00 2,8 1,9 14 8 18 10 ZW 1004,1 20
12.12.2019 04:00:00 3,8 2,5 14 8 - - WZW 1005,1 20
12.12.2019 03:00:00 3,8 2,8 14 8 25 14 ZW 1003,5 20
12.12.2019 02:00:00 4,5 3,7 13 7 22 12 ZW 1003,7 10
12.12.2019 01:00:00 5,0 3,9 14 8 - - ZW 1004,7 19
12.12.2019 00:00:00 5,1 4,1 16 9 25 14 ZW 1004,5 10
11.12.2019 23:00:00 5,3 4,4 18 10 32 18 ZZW 1004,7 13
11.12.2019 22:00:00 5,8 4,0 24 13 - - ZZW 1007,0 4,9
11.12.2019 21:00:00 5,4 4,0 18 10 29 16 ZZW 1007,0 14
11.12.2019 20:00:00 5,3 4,1 18 10 29 16 Z 1005,3 16
11.12.2019 19:00:00 5,6 4,4 18 10 - - ZZW 1006,1 14
11.12.2019 18:00:00 5,8 4,7 18 10 22 12 ZZW 1005,7 14
11.12.2019 17:00:00 6,0 5,1 14 8 18 10 ZZW 1005,7 15
11.12.2019 16:00:00 6,5 5,6 15 8 - - ZZW 1006,5 10
11.12.2019 15:00:00 7,0 5,8 14 8 18 10 ZZW 1008,8 16
11.12.2019 14:00:00 6,9 6,1 14 8 18 10 ZZW 1010,2 10
11.12.2019 13:00:00 6,5 6,0 11 6 - - ZZW 1011,3 11
11.12.2019 12:00:00 5,9 5,5 11 6 22 12 Z 1011,3 13
11.12.2019 11:00:00 5,4 4,8 8 4 14 8 ZZW 1010,5 4,9
11.12.2019 10:00:00 5,0 4,5 11 6 - - Z 1010,3 20
11.12.2019 09:00:00 5,0 4,5 11 6 18 10 Z 1010,1 20
11.12.2019 08:00:00 5,0 4,5 11 6 22 12 Z 1010,0 12
11.12.2019 07:00:00 5,4 4,9 15 8 - - Z 1010,7 10
11.12.2019 06:00:00 5,5 5,0 18 10 29 16 Z 1011,1 13
11.12.2019 05:00:00 5,9 5,2 22 12 40 21 ZZW 1012,2 11
11.12.2019 04:00:00 5,9 5,1 25 14 - - ZZW 1012,5 6
11.12.2019 03:00:00 6,0 4,3 25 14 43 23 ZZW 1013,8 20
11.12.2019 02:00:00 5,9 4,3 32 18 50 27 ZZW 1013,7 14
11.12.2019 01:00:00 5,9 4,2 39 21 - - ZZW 1013,2 3,0
11.12.2019 00:00:00 6,4 3,1 42 23 58 31 ZZW 1014,1 10
10.12.2019 23:00:00 6,8 2,9 40 21 61 33 ZZW 1015,5 20
10.12.2019 22:00:00 6,3 2,8 32 18 - - Z 1015,8 20
10.12.2019 21:00:00 6,3 2,3 32 18 54 29 Z 1016,2 8
10.12.2019 20:00:00 6,4 2,0 40 21 58 31 Z 1017,7 20
10.12.2019 19:00:00 5,9 1,8 36 19 - - Z 1018,8 20
10.12.2019 18:00:00 5,9 1,7 32 18 50 27 Z 1019,7 20
10.12.2019 17:00:00 6,0 1,6 36 19 50 27 Z 1020,7 20
10.12.2019 16:00:00 5,8 1,5 25 14 - - Z 1022,1 20
10.12.2019 15:00:00 5,7 1,2 29 16 50 27 Z 1022,2 20
10.12.2019 14:00:00 6,4 1,4 36 19 50 27 ZZW 1024,7 19
10.12.2019 13:00:00 6,0 1,0 25 14 - - Z 1026,9 20
10.12.2019 12:00:00 5,8 0,7 25 14 40 21 ZZW 1025,5 19
10.12.2019 11:00:00 3,7 0,3 18 10 29 16 ZZW 1029,5 19
10.12.2019 10:00:00 1,7 -0,4 14 8 - - Z 1028,0 20
10.12.2019 09:00:00 0,3 -0,8 11 6 14 8 Z 1029,9 16
10.12.2019 08:00:00 0,4 -0,8 11 6 14 8 Z 1028,2 16
10.12.2019 07:00:00 0,1 -0,7 11 6 - - ZZW 1028,0 15
10.12.2019 06:00:00 0,3 -0,4 7 4 11 6 ZZW 1028,4 16
10.12.2019 05:00:00 0,3 -0,2 7 4 11 6 ZZW 1027,7 13
10.12.2019 04:00:00 1,1 0,0 7 4 - - ZZW 1027,0 13
10.12.2019 03:00:00 2,2 0,7 11 6 14 8 WZW 1027,0 16
10.12.2019 02:00:00 3,0 1,6 7 4 11 6 WZW 1028,2 16
10.12.2019 01:00:00 2,6 1,3 4 2 - - N 1025,2 18
10.12.2019 00:00:00 4,6 2,1 14 8 25 14 WNW 1026,5 18
09.12.2019 23:00:00 4,1 2,2 11 6 22 12 W 1023,7 16
09.12.2019 22:00:00 4,3 2,3 14 8 - - W 1023,1 18
09.12.2019 21:00:00 4,7 2,6 18 10 29 16 WNW 1022,7 17
09.12.2019 20:00:00 5,9 2,2 18 10 29 16 NW 1021,2 17
09.12.2019 19:00:00 6,0 3,2 18 10 - - NW 1018,7 15
09.12.2019 18:00:00 6,5 2,9 22 12 36 19 NW 1016,7 16
09.12.2019 17:00:00 6,0 3,4 32 18 65 35 NW 1014,1 19
09.12.2019 16:00:00 6,3 3,9 31 17 - - NW 1010,6 4,2
09.12.2019 15:00:00 6,9 3,9 34 18 54 29 NW 1009,7 10
09.12.2019 14:00:00 7,6 4,1 36 19 61 33 WNW 1007,3 19
09.12.2019 13:00:00 7,4 5,3 29 16 - - WNW 1005,3 13
09.12.2019 12:00:00 7,6 5,7 25 14 40 21 WNW 1004,0 20
09.12.2019 11:00:00 7,6 5,8 18 10 25 14 W 1003,7 20
09.12.2019 10:00:00 6,4 5,7 16 9 - - ZW 1000,2 10
09.12.2019 09:00:00 6,5 5,1 22 12 36 19 ZW 998,4 12
09.12.2019 08:00:00 6,6 4,3 22 12 40 21 ZW 998,0 20
09.12.2019 07:00:00 6,9 4,6 32 18 - - ZW 997,5 20
09.12.2019 06:00:00 6,9 4,8 40 21 61 33 ZW 996,9 20
09.12.2019 05:00:00 6,5 4,5 43 23 76 41 ZW 996,0 15
09.12.2019 04:00:00 6,8 3,8 36 19 - - ZZW 997,1 20
09.12.2019 03:00:00 6,6 3,5 36 19 54 29 ZZW 998,7 20
09.12.2019 02:00:00 6,7 3,8 32 18 50 27 ZZW 999,8 20
09.12.2019 01:00:00 6,5 4,0 32 18 - - ZZW 1000,7 18
09.12.2019 00:00:00 6,8 3,8 32 18 43 23 ZW 1001,3 20
08.12.2019 23:00:00 6,4 4,1 25 14 40 21 ZZW 1002,1 20
08.12.2019 22:00:00 6,5 3,5 25 14 - - ZW 1002,5 20
08.12.2019 21:00:00 7,4 4,1 29 16 61 33 ZW 1002,6 20
08.12.2019 20:00:00 8,0 4,1 40 21 61 33 ZW 1002,6 20
08.12.2019 19:00:00 8,5 5,6 36 19 - - ZW 1002,3 19
08.12.2019 18:00:00 8,9 5,3 26 14 40 21 WZW 1003,2 6
08.12.2019 17:00:00 9,1 6,4 28 15 47 25 ZW 1003,6 7
08.12.2019 16:00:00 10,0 5,2 29 16 - - ZW 1004,2 17
08.12.2019 15:00:00 10,6 5,5 25 14 43 23 WZW 1004,2 14
08.12.2019 14:00:00 10,8 6,0 25 14 47 25 WZW 1005,1 16
08.12.2019 13:00:00 11,0 6,8 29 16 - - WZW 1006,1 16
08.12.2019 12:00:00 10,8 9,1 29 16 58 31 ZW 1006,1 20
08.12.2019 11:00:00 10,2 9,1 36 19 61 33 ZW 1005,5 4,9
08.12.2019 10:00:00 9,8 8,5 36 19 - - ZW 1005,7 20
08.12.2019 09:00:00 9,3 8,0 39 21 58 31 ZZW 1005,5 7
08.12.2019 08:00:00 9,1 7,7 40 21 61 33 ZZW 1006,1 12
08.12.2019 07:00:00 9,1 7,3 32 18 - - ZZW 1007,1 9
08.12.2019 06:00:00 9,5 6,8 36 19 61 33 ZZW 1007,6 20
08.12.2019 05:00:00 9,7 6,5 37 20 54 29 ZZW 1008,6 10
08.12.2019 04:00:00 9,4 6,9 29 16 - - ZZW 1009,7 20
08.12.2019 03:00:00 9,0 6,7 32 18 47 25 ZZW 1010,7 20
08.12.2019 02:00:00 8,9 6,0 26 14 43 23 ZW 1012,2 10
08.12.2019 01:00:00 8,7 6,2 29 16 - - ZZW 1013,6 20
08.12.2019 00:00:00 8,8 5,9 22 12 32 18 ZZW 1014,8 20
07.12.2019 23:00:00 8,6 5,9 18 10 29 16 ZZW 1015,3 20
07.12.2019 22:00:00 8,7 6,0 18 10 - - ZZW 1016,1 20
07.12.2019 21:00:00 8,6 6,0 14 8 25 14 ZZW 1016,7 20
07.12.2019 20:00:00 8,7 6,2 18 10 25 14 ZZW 1017,2 20
07.12.2019 19:00:00 8,7 6,9 14 8 - - ZZW 1017,5 17
07.12.2019 18:00:00 8,3 7,1 11 6 22 12 ZZW 1017,2 17
07.12.2019 17:00:00 8,3 6,4 14 8 22 12 ZW 1016,7 20
07.12.2019 16:00:00 9,0 6,7 14 8 - - ZW 1016,3 20
07.12.2019 15:00:00 9,3 7,2 14 8 25 14 ZW 1016,7 20
07.12.2019 14:00:00 9,4 6,0 18 10 32 18 ZW 1017,2 20
07.12.2019 13:00:00 9,1 6,8 18 10 - - ZW 1017,0 19
07.12.2019 12:00:00 8,8 7,2 11 6 22 12 ZW 1017,5 19

tt = temperatuur
td = dauwpunt
ff = windsnelheid
fx = windstoten
dd = windrichting
ppp = luchtdruk
vv = zicht

Weerstations in de omgeving